Miscellaneous Local Product
Issued by NWS Hastings, NE

Home | Current Version | Previous Version | Graphics & Text | Print | Product List | Glossary On
Versions: 1 2 3 4 5 6 7 8 9 10 11 12 13 14 15 16 17 18 19 20 21 22 23 24 25 26 27 28 29 30 31 32 33 34 35 36 37 38 39 40 41 42 43 44 45 46 47 48 49 50
000
AXUS43 KGID 211702
MISGRI

GID CWA HOURLY WEATHER ROUNDUP
NATIONAL WEATHER SERVICE HASTINGS NE
1200 PM CDT THU AUG 21 2014

NOTE: "FAIR" INDICATES FEW OR NO CLOUDS BELOW 12,000 FEET WITH NO
SIGNIFICANT WEATHER AND/OR OBSTRUCTIONS TO VISIBILITY.

...SOUTH CENTRAL NEBRASKA...

CITY           SKY/WX    TMP DP  RH WIND       PRES   REMARKS
GRAND ISLAND   MOSUNNY   83  70  64 S12       29.84F
HASTINGS       MOSUNNY   76  66  71 S8        29.87R
KEARNEY        MOSUNNY   82  72  69 S14       29.88R
ORD            MOSUNNY   82  68  62 N7        29.85R
YORK           MOSUNNY   81 N/A N/A S13       29.85S
AURORA         MOSUNNY   82  71  69 S13       29.85S
LEXINGTON      SUNNY     82  69  66 NW7       29.89R
HOLDREGE       LGT RAIN  77  69  77 CALM      29.86S
HEBRON         CLOUDY    80  69  70 S7        29.86R

...NEBRASKA PANHANDLE...

CITY           SKY/WX    TMP DP  RH WIND       PRES   REMARKS
CHADRON        MOSUNNY   80  56  43 NE9       29.98S
ALLIANCE       SUNNY     82  49  31 N10       30.00R
SCOTTSBLUFF    SUNNY     80  55  42 VRB6      30.02S
SIDNEY         SUNNY     82  49  31 NW14      30.04R

...WESTERN AND NORTH CENTRAL NEBRASKA...

CITY           SKY/WX    TMP DP  RH WIND       PRES   REMARKS
VALENTINE      SUNNY     81  61  50 N14       29.92S
AINSWORTH      SUNNY     75  63  66 N6        29.92R
ONEILL         PTSUNNY   78  71  80 NW7       29.87R
BROKEN BOW     SUNNY     82  67  60 N9        29.90R
IMPERIAL       SUNNY     84  53  34 N13       29.96R
NORTH PLATTE   SUNNY     85  63  47 NE5       29.91R
MCCOOK         SUNNY     89  57  33 NW8       29.91S

...EASTERN NEBRASKA...

CITY           SKY/WX    TMP DP  RH WIND       PRES   REMARKS
NORFOLK        SUNNY     85  70  60 SW12      29.81F
SO SIOUX CITY  SUNNY     85  71  63 SW8       29.80S HX  90
TEKAMAH        SUNNY     88  70  55 SW15      29.81R HX  93
COLUMBUS         N/A     84  70  61 SW14      29.83R
ALBION         SUNNY     82  70  65 SW7       29.84S
OMAHA EPPLEY   PTSUNNY   82  68  62 SW8       29.82S
OFFUTT AFB     PTSUNNY   81  74  78 SW2       29.81F
MILLARD        PTSUNNY   83  70  64 SW5       29.81F
LINCOLN        CLOUDY    80  69  69 S7        29.82R
NEBRASKA CITY  CLOUDY    77  71  81 S16       29.83F
BEATRICE       CLOUDY    80  71  75 S12       29.85F
FALLS CITY     CLOUDY    91  70  49 S13       29.87F HX  96

...NORTHERN KANSAS...

CITY           SKY/WX    TMP DP  RH WIND       PRES   REMARKS
GOODLAND       SUNNY     87  50  27 N12       30.00S
HILL CITY      SUNNY     88  65  46 NE6       29.87R HX  90
NORTON         SUNNY     88  61  40 NW7       29.87S
PHILLIPSBURG   SUNNY     88  63  42 SE3       29.85R
SMITH CENTER   SUNNY     84  70  61 S5        29.85S
BELOIT         SUNNY     91  66  43 S9        29.83R HX  94
HAYS           SUNNY     91  66  43 S15G21    29.86S HX  94
RUSSELL        SUNNY     93  65  39 S16G26    29.84S HX  95
CONCORDIA      MOSUNNY   88  70  55 S13       29.85F HX  93
SALINA         SUNNY     93  66  40 SW20G28   29.87F HX  96
TOPEKA         MOSUNNY   92  71  50 S12       29.90S HX  98



USA.gov is the U.S. government's official web portal to all federal, state and local government web resources and services.